This is the latest recevied weather packets stored in our database for station/object KD8DNS. If no packets are shown the sender has not sent any weather packets the latest 10 day(s).
| Time | Temp. | Humidity | Pressure | Rain* | Wind** | Luminosity | Snow |
|---|---|---|---|---|---|---|---|
| 1788189556 | 30.56° C | 69% | 1022.6 hPa | 0 mm | - | 504 W/m² | - |
| 1788189254 | 30.56° C | 69% | 1022.6 hPa | 0 mm | - | 524 W/m² | - |
| 1788188950 | 30.56° C | 73% | 1022.3 hPa | 0 mm | - | 459 W/m² | - |
| 1788188645 | 30.56° C | 73% | 1022.5 hPa | 0 mm | - | 455 W/m² | - |
| 1788188344 | 30° C | 71% | 1022.4 hPa | 0 mm | - | 477 W/m² | - |
| 1788188041 | 29.44° C | 75% | 1022.6 hPa | 0 mm | - | 490 W/m² | - |
| 1788187736 | 28.89° C | 75% | 1022.3 hPa | 0 mm | - | 446 W/m² | - |
| 1788187432 | 28.89° C | 77% | 1022.6 hPa | 0 mm | - | 454 W/m² | - |
| 1788187127 | 28.33° C | 78% | 1022.5 hPa | 0 mm | - | 444 W/m² | - |
| 1788186822 | 28.33° C | 78% | 1022.5 hPa | 0 mm | - | 446 W/m² | - |
| 1788186518 | 28.33° C | 78% | 1022.4 hPa | 0 mm | - | 391 W/m² | - |
| 1788186213 | 27.78° C | 79% | 1022.4 hPa | 0 mm | - | 372 W/m² | - |
| 1788185913 | 27.22° C | 81% | 1022.5 hPa | 0 mm | - | 340 W/m² | - |
| 1788185607 | 26.67° C | 82% | 1022.6 hPa | 0 mm | - | 269 W/m² | - |
| 1788185302 | 26.67° C | 83% | 1022.6 hPa | 0 mm | - | 211 W/m² | - |
| 1788184997 | 26.11° C | 83% | 1022.4 hPa | 0 mm | - | 283 W/m² | - |
| 1788184695 | 26.11° C | 84% | 1022.6 hPa | 0 mm | - | 298 W/m² | - |
| 1788184390 | 25.56° C | 85% | 1022.7 hPa | 0 mm | - | 187 W/m² | - |
| 1788184086 | 25.56° C | 85% | 1022.4 hPa | 0 mm | - | 156 W/m² | - |
| 1788183782 | 25.56° C | 86% | 1022.6 hPa | 0 mm | - | 269 W/m² | - |
| 1788183481 | 25° C | 86% | 1022.6 hPa | 0 mm | - | 248 W/m² | - |
| 1788183180 | 25° C | 88% | 1022.8 hPa | 0 mm | - | 208 W/m² | - |
| 1788182875 | 24.44° C | 89% | 1022.7 hPa | 0 mm | - | 185 W/m² | - |
| 1788182570 | 23.89° C | 90% | 1022.7 hPa | 0 mm | - | 177 W/m² | - |
| 1788182265 | 23.89° C | 91% | 1022.6 hPa | 0 mm | - | 165 W/m² | - |
* Rain latest hour (hover to see other rain measurements)
** Current wind speed in m/s (hover to see current wind gust speed)